Showing default

PELICAN-7 300E, 69017

Orbit data source: Space-Track

PELICAN-7 300E, 69017 is a payload satellite owned by Planet (US) in SSO that was launched on Sun, 03 May 2026 UTC via an FALCON 9 launch vehicle from the Air Force Western Test Range (AFWTR). Payload-class satellites include a variety of spacecraft equipped with specific instruments for various scientific and technological missions. These include communications satellites like Starlink; space stations such as the ISS; scientific satellites like the Hubble; Earth observation satellites from companies like Planet Labs, Umbra, and HawkEye 360; GPS; miniature CubeSats for education and research; and military/defense satellites.

Loading next visibility...
Identifier
69017, 2026-100AP
Orbit
SSO
Country
Flag of USUS
Related business
Manufacturer
Planet
Mission
Operational spacecraft
Bus & Motor
PELICAN, XE AOCS
Mass
160 kg wet, 146 kg dry
Launch date (UTC)
2026-05-03 (2 months ago)
Launch vehicle
FALCON 9
Launch site
Air Force Western Test Range (AFWTR)
Object type
Payload
Rocket body
Debris
Shape & HBR
Unknown shape, 14.5 m
Radar Cross Section
Large (>1 m²)

Expand to show TLE details & history
Last TLE update: 1 day ago

TLE from 1 day ago
0 PELICAN-7 300E
1 69017U 26100AP  26174.64645911  .00002708  00000-0  12109-3 0  9991
2 69017  97.4045  72.4193 0001153  80.7400 279.3967 15.22157977  7791
Epoch: 2026-06-23T15:30Z
TLE epoch observation values (Epoch: 2026-06-23T15:30:54.067Z)
Latitude
0.00003°
Longitude
-72.12102°
Altitude
502.297 km
Speed
7.613 km/s
True Right ascension
04h 49m 40s
True Declination
0° 00' 00"
Sunlit
Object was in daylight at epoch
Visualization orbit readout
Latitude
Unknown
Longitude
Unknown
Altitude
Unknown
Speed
Unknown
Apparent Right ascension
Unknown
Apparent Declination
Unknown
Sunlit
N/A
Visualization observer readout
Local Sidereal Time
05:59:18
Azimuth
Unknown
Elevation
Unknown
Doppler factor
Unknown
Orbital elements
Apogee altitude
497.088 km
Perigee altitude
495.503 km
Semi-major axis
6,874.433 km
Eccentricity
0.00012
Inclination
97.4045°
RAAN
72.4193°
Arg. of periapsis
80.74°
True anomaly
279.38366°
Mean anomaly
279.3967°
Eccentric anomaly
279.39018°
Mean motion
3.80792 °/min
Orbital period
94.54 mins
BSTAR
0.00012109
Loading maneuver chart data...
Computing Atmospheric mass density...
Loading historical data...
Loading historical data...
Loading historical data...
Loading historical data...
Loading historical data...
Loading historical data...
Loading historical data...

Documentation

Showing up to 5 results
|